This is the latest recevied weather packets stored in our database for station/object KC5TIL-3. If no packets are shown the sender has not sent any weather packets the latest 10 day(s).
| Time | Temp. | Humidity | Pressure | Rain* | Wind** | Luminosity | Snow |
|---|---|---|---|---|---|---|---|
| 1787592969 | 37.78° C | 10% | 1011.8 hPa | 0 mm | 4.47 m/s, 209° | - | - |
| 1787592671 | 38.33° C | 10% | 1011.8 hPa | 0 mm | 4.02 m/s, 176° | - | - |
| 1787592370 | 37.78° C | 10% | 1011.8 hPa | 0 mm | 3.13 m/s, 181° | - | - |
| 1787592071 | 37.78° C | 10% | 1011.8 hPa | 0 mm | 1.79 m/s, 286° | - | - |
| 1787591773 | 37.78° C | 10% | 1011.8 hPa | 0 mm | 2.68 m/s, 219° | - | - |
| 1787591472 | 37.78° C | 10% | 1011.8 hPa | 0 mm | 4.47 m/s, 231° | - | - |
| 1787591174 | 37.78° C | 10% | 1011.8 hPa | 0 mm | 1.79 m/s, 201° | - | - |
| 1787590875 | 37.78° C | 10% | 1011.8 hPa | 0 mm | 2.24 m/s, 152° | - | - |
| 1787590574 | 37.22° C | 10% | 1011.8 hPa | 0 mm | 3.13 m/s, 227° | - | - |
| 1787590276 | 36.11° C | 10% | 1011.8 hPa | 0 mm | 4.47 m/s, 212° | - | - |
| 1787589978 | 36.11° C | 11% | 1011.8 hPa | 0 mm | 4.47 m/s, 172° | - | - |
| 1787589676 | 36.11° C | 11% | 1011.8 hPa | 0 mm | 4.02 m/s, 107° | - | - |
| 1787589378 | 36.11° C | 11% | 1011.8 hPa | 0 mm | 3.58 m/s, 208° | - | - |
| 1787589080 | 36.67° C | 10% | 1012.8 hPa | 0 mm | 2.68 m/s, 133° | - | - |
| 1787588779 | 35.56° C | 11% | 1012.8 hPa | 0 mm | 3.58 m/s, 190° | - | - |
| 1787588480 | 35.56° C | 11% | 1012.8 hPa | 0 mm | 3.13 m/s, 199° | - | - |
| 1787588182 | 36.11° C | 11% | 1012.8 hPa | 0 mm | 2.68 m/s, 176° | - | - |
| 1787587881 | 36.11° C | 13% | 1012.8 hPa | 0 mm | 1.79 m/s, 169° | - | - |
| 1787587578 | 35.56° C | 13% | 1012.8 hPa | 0 mm | 3.13 m/s, 243° | - | - |
| 1787587280 | 35.56° C | 13% | 1012.8 hPa | 0 mm | 2.68 m/s, 195° | - | - |
| 1787586979 | 35.56° C | 13% | 1012.8 hPa | 0 mm | 1.79 m/s, 286° | - | - |
| 1787586681 | 35° C | 14% | 1012.8 hPa | 0 mm | 1.79 m/s, 170° | - | - |
| 1787586382 | 35° C | 14% | 1011.8 hPa | 0 mm | 3.13 m/s, 166° | - | - |
| 1787586077 | 34.44° C | 14% | 1011.8 hPa | 0 mm | 3.58 m/s, 184° | - | - |
| 1787585778 | 34.44° C | 14% | 1011.8 hPa | 0 mm | 3.13 m/s, 179° | - | - |
* Rain latest hour (hover to see other rain measurements)
** Current wind speed in m/s (hover to see current wind gust speed)